• In Netherlands
  • List of Countries
  • For 7 days
  • Water Temperature
  • Satellite Maps
  • Weather Map
  • Weather Widgets
  • user-avatar
    Login

    Hourly Weather Ramency

    Today, 26 September, Wednesday

    Time Temperature Precipitation Wind Pressure Humidity
    00:00 +1°C° 0 mm 3 mps 742 mmHg 72%
    01:00 +2°C° 0 mm 3 mps 742 mmHg 75%
    02:00 +1°C° 0 mm 4 mps 741 mmHg 78%
    03:00 +1°C° 0 mm 4 mps 740 mmHg 81%
    04:00 +1°C° 0 mm 4 mps 740 mmHg 85%
    05:00 +1°C° 0 mm 4 mps 740 mmHg 88%
    06:00 +3°C° 0.1 mm 4 mps 739 mmHg 88%
    07:00 +3°C° 0.1 mm 4 mps 739 mmHg 88%
    08:00 +4°C° 0.1 mm 4 mps 738 mmHg 88%
    09:00 +3°C° 0.6 mm 5 mps 737 mmHg 88%
    10:00 +5°C° 0.6 mm 5 mps 736 mmHg 88%
    11:00 +5°C° 0.6 mm 5 mps 736 mmHg 88%
    12:00 +6°C° 0.5 mm 5 mps 734 mmHg 87%
    13:00 +5°C° 0.5 mm 6 mps 733 mmHg 86%
    14:00 +5°C° 0.5 mm 6 mps 732 mmHg 85%
    15:00 +5°C° 1.5 mm 6 mps 730 mmHg 87%
    16:00 +5°C° 1.5 mm 6 mps 728 mmHg 89%
    17:00 +5°C° 1.5 mm 6 mps 727 mmHg 90%
    18:00 +5°C° 1.5 mm 6 mps 725 mmHg 91%
    19:00 +5°C° 1.5 mm 6 mps 724 mmHg 91%
    20:00 +6°C° 1.5 mm 5 mps 722 mmHg 91%
    21:00 +6°C° 1.1 mm 5 mps 721 mmHg 91%
    22:00 +6°C° 1.1 mm 4 mps 721 mmHg 91%
    23:00 +6°C° 1.1 mm 4 mps 720 mmHg 91%

    Tomorrow, 27 September, Thursday

    Time Temperature Precipitation Wind Pressure Humidity
    00:00 +5°C° 0.3 mm 4 mps 720 mmHg 90%
    01:00 +5°C° 0.3 mm 4 mps 719 mmHg 89%
    02:00 +4°C° 0.3 mm 4 mps 719 mmHg 87%
    03:00 +4°C° 0.2 mm 4 mps 719 mmHg 88%
    04:00 +4°C° 0.2 mm 4 mps 719 mmHg 89%
    05:00 +4°C° 0.2 mm 3 mps 719 mmHg 90%
    06:00 +4°C° 0.2 mm 3 mps 719 mmHg 90%
    07:00 +4°C° 0.2 mm 3 mps 719 mmHg 90%
    08:00 +5°C° 0.2 mm 3 mps 719 mmHg 89%
    09:00 +5°C° 0.2 mm 4 mps 720 mmHg 87%
    10:00 +5°C° 0.2 mm 4 mps 720 mmHg 84%
    11:00 +6°C° 0.2 mm 4 mps 721 mmHg 81%
    12:00 +6°C° 0.1 mm 4 mps 721 mmHg 80%
    13:00 +6°C° 0.1 mm 5 mps 722 mmHg 78%
    14:00 +6°C° 0.1 mm 5 mps 723 mmHg 77%
    15:00 +6°C° 0.3 mm 5 mps 723 mmHg 80%
    16:00 +5°C° 0.3 mm 5 mps 724 mmHg 83%
    17:00 +5°C° 0.3 mm 5 mps 724 mmHg 87%
    18:00 +4°C° 0.3 mm 6 mps 725 mmHg 86%
    19:00 +4°C° 0.3 mm 7 mps 725 mmHg 84%
    20:00 +3°C° 0.3 mm 7 mps 726 mmHg 83%
    21:00 +3°C° 0.2 mm 7 mps 726 mmHg 83%
    22:00 +2°C° 0.2 mm 7 mps 727 mmHg 83%
    23:00 +2°C° 0.2 mm 7 mps 727 mmHg 83%

    Day after tomorrow, 28 September, Friday

    Time Temperature Precipitation Wind Pressure Humidity
    00:00 +2°C° 0.1 mm 7 mps 727 mmHg 83%
    01:00 +2°C° 0.1 mm 6 mps 727 mmHg 83%
    02:00 +1°C° 0.1 mm 6 mps 728 mmHg 84%
    03:00 +1°C° 0.1 mm 6 mps 728 mmHg 84%
    04:00 +1°C° 0.1 mm 5 mps 728 mmHg 84%
    05:00 +1°C° 0.1 mm 5 mps 728 mmHg 84%
    06:00 +1°C° 0.1 mm 5 mps 728 mmHg 83%
    07:00 +1°C° 0.1 mm 5 mps 728 mmHg 82%
    08:00 +1°C° 0.1 mm 5 mps 728 mmHg 81%
    09:00 +1°C° 0.1 mm 5 mps 729 mmHg 80%
    10:00 +1°C° 0.1 mm 6 mps 729 mmHg 78%
    11:00 +1°C° 0.1 mm 6 mps 729 mmHg 77%
    12:00 +1°C° 0.3 mm 6 mps 730 mmHg 76%
    13:00 +1°C° 0.3 mm 6 mps 730 mmHg 76%
    14:00 0°C° 0.3 mm 7 mps 731 mmHg 75%
    15:00 0°C° 0.5 mm 7 mps 731 mmHg 76%
    16:00 -1°C° 0.5 mm 7 mps 731 mmHg 78%
    17:00 -1°C° 0.5 mm 7 mps 732 mmHg 79%
    18:00 -1°C° 0.4 mm 7 mps 732 mmHg 80%
    19:00 -1°C° 0.4 mm 7 mps 733 mmHg 80%
    20:00 -1°C° 0.4 mm 8 mps 733 mmHg 80%
    21:00 -1°C° 0.2 mm 7 mps 734 mmHg 80%
    22:00 -1°C° 0.2 mm 7 mps 734 mmHg 80%
    23:00 -1°C° 0.2 mm 7 mps 735 mmHg 80%

    29 September, Saturday

    Time Temperature Precipitation Wind Pressure Humidity
    00:00 -2°C° 0.1 mm 7 mps 736 mmHg 80%
    01:00 -2°C° 0.1 mm 7 mps 736 mmHg 80%
    02:00 -2°C° 0.1 mm 7 mps 737 mmHg 79%
    03:00 -3°C° 0 mm 7 mps 738 mmHg 79%
    04:00 -3°C° 0 mm 6 mps 739 mmHg 79%
    05:00 -3°C° 0 mm 6 mps 740 mmHg 78%
    06:00 -3°C° 0 mm 6 mps 740 mmHg 77%
    07:00 -3°C° 0 mm 6 mps 741 mmHg 76%
    08:00 -3°C° 0 mm 6 mps 742 mmHg 75%
    09:00 -3°C° 0 mm 6 mps 742 mmHg 72%
    10:00 -1°C° 0 mm 5 mps 743 mmHg 69%
    11:00 0°C° 0 mm 5 mps 744 mmHg 66%
    12:00 0°C° 0 mm 5 mps 744 mmHg 63%
    13:00 +1°C° 0 mm 5 mps 744 mmHg 60%
    14:00 +1°C° 0 mm 5 mps 745 mmHg 57%
    15:00 0°C° 0 mm 4 mps 745 mmHg 61%
    16:00 +1°C° 0 mm 3 mps 745 mmHg 64%
    17:00 0°C° 0 mm 3 mps 745 mmHg 68%
    18:00 -1°C° 0 mm 3 mps 745 mmHg 69%
    19:00 -1°C° 0 mm 3 mps 746 mmHg 70%
    20:00 -2°C° 0 mm 3 mps 746 mmHg 71%
    21:00 -1°C° 0 mm 3 mps 745 mmHg 71%
    22:00 -1°C° 0 mm 3 mps 745 mmHg 72%
    23:00 -1°C° 0 mm 3 mps 745 mmHg 72%

    30 September, Sunday

    Time Temperature Precipitation Wind Pressure Humidity
    00:00 -1°C° 0.1 mm 4 mps 744 mmHg 73%
    01:00 -1°C° 0.1 mm 4 mps 744 mmHg 74%
    02:00 0°C° 0.1 mm 5 mps 743 mmHg 74%
    03:00 0°C° 0.3 mm 5 mps 743 mmHg 77%
    04:00 +1°C° 0.3 mm 6 mps 742 mmHg 80%
    05:00 +1°C° 0.3 mm 6 mps 741 mmHg 82%
    06:00 +2°C° 0.4 mm 6 mps 741 mmHg 83%
    07:00 +2°C° 0.4 mm 6 mps 740 mmHg 84%
    08:00 +2°C° 0.4 mm 6 mps 740 mmHg 85%
    09:00 +3°C° 0.2 mm 5 mps 740 mmHg 84%
    10:00 +3°C° 0.2 mm 5 mps 740 mmHg 84%
    11:00 +5°C° 0.2 mm 5 mps 740 mmHg 84%
    12:00 +5°C° 0 mm 5 mps 739 mmHg 85%
    13:00 +5°C° 0 mm 4 mps 739 mmHg 86%
    14:00 +5°C° 0 mm 4 mps 739 mmHg 87%
    15:00 +5°C° 0.1 mm 4 mps 739 mmHg 88%
    16:00 +5°C° 0.1 mm 4 mps 738 mmHg 89%
    17:00 +5°C° 0.1 mm 4 mps 738 mmHg 90%
    18:00 +5°C° 0.2 mm 4 mps 738 mmHg 91%
    19:00 +5°C° 0.2 mm 4 mps 738 mmHg 92%
    20:00 +5°C° 0.2 mm 4 mps 738 mmHg 93%
    21:00 +4°C° 0.1 mm 3 mps 738 mmHg 94%
    22:00 +4°C° 0.1 mm 3 mps 738 mmHg 94%
    23:00 +4°C° 0.1 mm 3 mps 738 mmHg 94%

    1 October, Monday

    Time Temperature Precipitation Wind Pressure Humidity
    00:00 +4°C° 0 mm 3 mps 739 mmHg 95%
    01:00 +3°C° 0 mm 3 mps 739 mmHg 95%
    02:00 +3°C° 0 mm 3 mps 739 mmHg 95%
    03:00 +3°C° 0 mm 3 mps 739 mmHg 95%
    04:00 +2°C° 0 mm 3 mps 739 mmHg 95%
    05:00 +2°C° 0 mm 3 mps 739 mmHg 95%
    06:00 +3°C° 0 mm 3 mps 739 mmHg 94%
    07:00 +3°C° 0 mm 3 mps 739 mmHg 93%
    08:00 +4°C° 0 mm 3 mps 739 mmHg 92%
    09:00 +5°C° 0 mm 3 mps 740 mmHg 89%
    10:00 +7°C° 0 mm 3 mps 740 mmHg 87%
    11:00 +8°C° 0 mm 3 mps 740 mmHg 84%
    12:00 +8°C° 0.3 mm 3 mps 740 mmHg 83%
    13:00 +8°C° 0.3 mm 3 mps 740 mmHg 81%
    14:00 +9°C° 0.3 mm 3 mps 740 mmHg 80%
    15:00 +8°C° 0.1 mm 2 mps 741 mmHg 84%
    16:00 +7°C° 0.1 mm 2 mps 741 mmHg 88%
    17:00 +6°C° 0.1 mm 2 mps 741 mmHg 92%
    18:00 +5°C° 0 mm 2 mps 742 mmHg 93%
    19:00 +5°C° 0 mm 2 mps 742 mmHg 94%
    20:00 +4°C° 0 mm 2 mps 742 mmHg 94%
    21:00 +4°C° 0 mm 2 mps 742 mmHg 94%
    22:00 +4°C° 0 mm 2 mps 743 mmHg 95%
    23:00 +4°C° 0 mm 2 mps 743 mmHg 95%
    Show more